Year,Month,Day,Hour,Minute,Value (Times are PST for temperature in C)
2007,07,09,00,00,16.20
2007,07,09,00,01,16.20
2007,07,09,00,02,16.20
2007,07,09,00,03,16.20
2007,07,09,00,04,16.30
2007,07,09,00,05,16.30
2007,07,09,00,06,16.40
2007,07,09,00,07,16.50
2007,07,09,00,08,16.50
2007,07,09,00,09,16.60
2007,07,09,00,10,16.60
2007,07,09,00,11,16.60
2007,07,09,00,12,16.60
2007,07,09,00,13,16.60
2007,07,09,00,14,16.70
2007,07,09,00,15,16.70
2007,07,09,00,16,16.70
2007,07,09,00,17,16.70
2007,07,09,00,18,16.70
2007,07,09,00,19,16.80
2007,07,09,00,20,16.80
2007,07,09,00,21,16.80
2007,07,09,00,22,16.80
2007,07,09,00,23,16.80
2007,07,09,00,24,16.80
2007,07,09,00,25,16.80
2007,07,09,00,26,16.80
2007,07,09,00,27,16.90
2007,07,09,00,28,16.90
2007,07,09,00,29,16.90
2007,07,09,00,30,16.90
2007,07,09,00,31,16.90
2007,07,09,00,32,16.90
2007,07,09,00,33,17.00
2007,07,09,00,34,17.10
2007,07,09,00,35,17.10
2007,07,09,00,36,17.10
2007,07,09,00,37,17.20
2007,07,09,00,38,17.20
2007,07,09,00,39,17.20
2007,07,09,00,40,17.20
2007,07,09,00,41,17.20
2007,07,09,00,42,17.10
2007,07,09,00,43,17.10
2007,07,09,00,44,17.10
2007,07,09,00,45,17.00
2007,07,09,00,46,17.00
2007,07,09,00,47,16.90
2007,07,09,00,48,16.90
2007,07,09,00,49,16.90
2007,07,09,00,50,16.80
2007,07,09,00,51,16.80
2007,07,09,00,52,16.80
2007,07,09,00,53,16.80
2007,07,09,00,54,16.80
2007,07,09,00,55,16.90
2007,07,09,00,56,16.90
2007,07,09,00,57,17.00
2007,07,09,00,58,17.00
2007,07,09,00,59,16.90
2007,07,09,01,00,16.90
2007,07,09,01,01,16.90
2007,07,09,01,02,16.90
2007,07,09,01,03,16.90
2007,07,09,01,04,16.90
2007,07,09,01,05,16.90
2007,07,09,01,06,16.80
2007,07,09,01,07,16.80
2007,07,09,01,08,16.80
2007,07,09,01,09,16.90
2007,07,09,01,10,16.90
2007,07,09,01,11,16.90
2007,07,09,01,12,16.80
2007,07,09,01,13,16.80
2007,07,09,01,14,16.80
2007,07,09,01,15,16.80
2007,07,09,01,16,16.70
2007,07,09,01,17,16.70
2007,07,09,01,18,16.70
2007,07,09,01,19,16.70
2007,07,09,01,20,16.70
2007,07,09,01,21,16.60
2007,07,09,01,22,16.60
2007,07,09,01,23,16.60
2007,07,09,01,24,16.60
2007,07,09,01,25,16.60
2007,07,09,01,26,16.60
2007,07,09,01,27,16.60
2007,07,09,01,28,16.70
2007,07,09,01,29,16.60
2007,07,09,01,30,16.60
2007,07,09,01,31,16.60
2007,07,09,01,32,16.60
2007,07,09,01,33,16.60
2007,07,09,01,34,16.60
2007,07,09,01,35,16.60
2007,07,09,01,36,16.60
2007,07,09,01,37,16.60
2007,07,09,01,38,16.60
2007,07,09,01,39,16.60
2007,07,09,01,40,16.60
2007,07,09,01,41,16.60
2007,07,09,01,42,16.60
2007,07,09,01,43,16.60
2007,07,09,01,44,16.60
2007,07,09,01,45,16.60
2007,07,09,01,46,16.70
2007,07,09,01,47,16.80
2007,07,09,01,48,16.80
2007,07,09,01,49,16.80
2007,07,09,01,50,16.80
2007,07,09,01,51,16.80
2007,07,09,01,52,16.80
2007,07,09,01,53,16.80
2007,07,09,01,54,16.80
2007,07,09,01,55,16.80
2007,07,09,01,56,16.80
2007,07,09,01,57,16.80
2007,07,09,01,58,16.70
2007,07,09,01,59,16.80
2007,07,09,02,00,16.80
2007,07,09,02,01,16.80
2007,07,09,02,02,16.80
2007,07,09,02,03,16.80
2007,07,09,02,04,16.80
2007,07,09,02,05,16.80
2007,07,09,02,06,16.80
2007,07,09,02,07,16.80
2007,07,09,02,08,16.80
2007,07,09,02,09,16.90
2007,07,09,02,10,16.90
2007,07,09,02,11,16.90
2007,07,09,02,12,17.00
2007,07,09,02,13,17.00
2007,07,09,02,14,17.00
2007,07,09,02,15,17.10
2007,07,09,02,16,17.10
2007,07,09,02,17,17.10
2007,07,09,02,18,17.20
2007,07,09,02,19,17.20
2007,07,09,02,20,17.20
2007,07,09,02,21,17.20
2007,07,09,02,22,17.10
2007,07,09,02,23,17.10
2007,07,09,02,24,17.10
2007,07,09,02,25,17.10
2007,07,09,02,26,17.10
2007,07,09,02,27,17.10
2007,07,09,02,28,17.10
2007,07,09,02,29,17.10
2007,07,09,02,30,17.10
2007,07,09,02,31,17.20
2007,07,09,02,32,17.20
2007,07,09,02,33,17.20
2007,07,09,02,34,17.20
2007,07,09,02,35,17.20
2007,07,09,02,36,17.20
2007,07,09,02,37,17.20
2007,07,09,02,38,17.20
2007,07,09,02,39,17.30
2007,07,09,02,40,17.30
2007,07,09,02,41,17.30
2007,07,09,02,42,17.30
2007,07,09,02,43,17.30
2007,07,09,02,44,17.30
2007,07,09,02,45,17.30
2007,07,09,02,46,17.30
2007,07,09,02,47,17.30
2007,07,09,02,48,17.30
2007,07,09,02,49,17.30
2007,07,09,02,50,17.30
2007,07,09,02,51,17.30
2007,07,09,02,52,17.30
2007,07,09,02,53,17.30
2007,07,09,02,54,17.20
2007,07,09,02,55,17.20
2007,07,09,02,56,17.20
2007,07,09,02,57,17.20
2007,07,09,02,58,17.20
2007,07,09,02,59,17.20
2007,07,09,03,00,17.20
2007,07,09,03,01,17.20
2007,07,09,03,02,17.20
2007,07,09,03,03,17.20
2007,07,09,03,04,17.20
2007,07,09,03,05,17.20
2007,07,09,03,06,17.20
2007,07,09,03,07,17.20
2007,07,09,03,08,17.20
2007,07,09,03,09,17.20
2007,07,09,03,10,17.20
2007,07,09,03,11,17.20
2007,07,09,03,12,17.20
2007,07,09,03,13,17.30
2007,07,09,03,14,17.30
2007,07,09,03,15,17.30
2007,07,09,03,16,17.30
2007,07,09,03,17,17.30
2007,07,09,03,18,17.30
2007,07,09,03,19,17.20
2007,07,09,03,20,17.20
2007,07,09,03,21,17.20
2007,07,09,03,22,17.20
2007,07,09,03,23,17.20
2007,07,09,03,24,17.20
2007,07,09,03,25,17.20
2007,07,09,03,26,17.20
2007,07,09,03,27,17.20
2007,07,09,03,28,17.20
2007,07,09,03,29,17.20
2007,07,09,03,30,17.20
2007,07,09,03,31,17.10
2007,07,09,03,32,17.10
2007,07,09,03,33,17.10
2007,07,09,03,34,17.10
2007,07,09,03,35,17.10
2007,07,09,03,36,17.10
2007,07,09,03,37,17.10
2007,07,09,03,38,17.10
2007,07,09,03,39,17.10
2007,07,09,03,40,17.10
2007,07,09,03,41,17.10
2007,07,09,03,42,17.10
2007,07,09,03,43,17.10
2007,07,09,03,44,17.00
2007,07,09,03,45,17.00
2007,07,09,03,46,17.00
2007,07,09,03,47,17.00
2007,07,09,03,48,16.90
2007,07,09,03,49,16.90
2007,07,09,03,50,16.90
2007,07,09,03,51,16.90
2007,07,09,03,52,16.90
2007,07,09,03,53,16.90
2007,07,09,03,54,16.90
2007,07,09,03,55,16.80
2007,07,09,03,56,16.80
2007,07,09,03,57,16.80
2007,07,09,03,58,16.80
2007,07,09,03,59,16.80
2007,07,09,04,00,16.80
2007,07,09,04,01,16.80
2007,07,09,04,02,16.80
2007,07,09,04,03,16.80
2007,07,09,04,04,16.80
2007,07,09,04,05,16.80
2007,07,09,04,06,16.80
2007,07,09,04,07,16.80
2007,07,09,04,08,16.80
2007,07,09,04,09,16.80
2007,07,09,04,10,16.80
2007,07,09,04,11,16.80
2007,07,09,04,12,16.80
2007,07,09,04,13,16.80
2007,07,09,04,14,16.80
2007,07,09,04,15,16.80
2007,07,09,04,16,16.80
2007,07,09,04,17,16.80
2007,07,09,04,18,16.70
2007,07,09,04,19,16.70
2007,07,09,04,20,16.70
2007,07,09,04,21,16.70
2007,07,09,04,22,16.70
2007,07,09,04,23,16.70
2007,07,09,04,24,16.70
2007,07,09,04,25,16.70
2007,07,09,04,26,16.70
2007,07,09,04,27,16.70
2007,07,09,04,28,16.70
2007,07,09,04,29,16.60
2007,07,09,04,30,16.60
2007,07,09,04,31,16.60
2007,07,09,04,32,16.60
2007,07,09,04,33,16.60
2007,07,09,04,34,16.60
2007,07,09,04,35,16.60
2007,07,09,04,36,16.60
2007,07,09,04,37,16.60
2007,07,09,04,38,16.60
2007,07,09,04,39,16.60
2007,07,09,04,40,16.60
2007,07,09,04,41,16.60
2007,07,09,04,42,16.60
2007,07,09,04,43,16.50
2007,07,09,04,44,16.50
2007,07,09,04,45,16.50
2007,07,09,04,46,16.50
2007,07,09,04,47,16.50
2007,07,09,04,48,16.50
2007,07,09,04,49,16.40
2007,07,09,04,50,16.40
2007,07,09,04,51,16.40
2007,07,09,04,52,16.40
2007,07,09,04,53,16.40
2007,07,09,04,54,16.40
2007,07,09,04,55,16.30
2007,07,09,04,56,16.30
2007,07,09,04,57,16.30
2007,07,09,04,58,16.30
2007,07,09,04,59,16.30
2007,07,09,05,00,16.30
2007,07,09,05,01,16.30
2007,07,09,05,02,16.30
2007,07,09,05,03,16.30
2007,07,09,05,04,16.30
2007,07,09,05,05,16.30
2007,07,09,05,06,16.30
2007,07,09,05,07,16.30
2007,07,09,05,08,16.30
2007,07,09,05,09,16.20
2007,07,09,05,10,16.20
2007,07,09,05,11,16.20
2007,07,09,05,12,16.20
2007,07,09,05,13,16.20
2007,07,09,05,14,16.20
2007,07,09,05,15,16.20
2007,07,09,05,16,16.20
2007,07,09,05,17,16.20
2007,07,09,05,18,16.20
2007,07,09,05,19,16.20
2007,07,09,05,20,16.20
2007,07,09,05,21,16.20
2007,07,09,05,22,16.20
2007,07,09,05,23,16.20
2007,07,09,05,24,16.20
2007,07,09,05,25,16.20
2007,07,09,05,26,16.10
2007,07,09,05,27,16.10
2007,07,09,05,28,16.10
2007,07,09,05,29,16.10
2007,07,09,05,30,16.10
2007,07,09,05,31,16.10
2007,07,09,05,32,16.10
2007,07,09,05,33,16.10
2007,07,09,05,34,16.10
2007,07,09,05,35,16.10
2007,07,09,05,36,16.10
2007,07,09,05,37,16.10
2007,07,09,05,38,16.10
2007,07,09,05,39,16.10
2007,07,09,05,40,16.10
2007,07,09,05,41,16.10
2007,07,09,05,42,16.10
2007,07,09,05,43,16.10
2007,07,09,05,44,16.10
2007,07,09,05,45,16.10
2007,07,09,05,46,16.10
2007,07,09,05,47,16.10
2007,07,09,05,48,16.10
2007,07,09,05,49,16.10
2007,07,09,05,50,16.10
2007,07,09,05,51,16.10
2007,07,09,05,52,16.10
2007,07,09,05,53,16.10
2007,07,09,05,54,16.10
2007,07,09,05,55,16.10
2007,07,09,05,56,16.10
2007,07,09,05,57,16.10
2007,07,09,05,58,16.10
2007,07,09,05,59,16.10
2007,07,09,06,00,16.20
2007,07,09,06,01,16.20
2007,07,09,06,02,16.20
2007,07,09,06,03,16.20
2007,07,09,06,04,16.20
2007,07,09,06,05,16.20
2007,07,09,06,06,16.20
2007,07,09,06,07,16.20
2007,07,09,06,08,16.20
2007,07,09,06,09,16.20
2007,07,09,06,10,16.20
2007,07,09,06,11,16.20
2007,07,09,06,12,16.20
2007,07,09,06,13,16.20
2007,07,09,06,14,16.20
2007,07,09,06,15,16.20
2007,07,09,06,16,16.20
2007,07,09,06,17,16.20
2007,07,09,06,18,16.20
2007,07,09,06,19,16.10
2007,07,09,06,20,16.10
2007,07,09,06,21,16.10
2007,07,09,06,22,16.10
2007,07,09,06,23,16.10
2007,07,09,06,24,16.10
2007,07,09,06,25,16.10
2007,07,09,06,26,16.10
2007,07,09,06,27,16.10
2007,07,09,06,28,16.10
2007,07,09,06,29,16.10
2007,07,09,06,30,16.10
2007,07,09,06,31,16.10
2007,07,09,06,32,16.10
2007,07,09,06,33,16.10
2007,07,09,06,34,16.10
2007,07,09,06,35,16.10
2007,07,09,06,36,16.10
2007,07,09,06,37,16.10
2007,07,09,06,38,16.10
2007,07,09,06,39,16.10
2007,07,09,06,40,16.10
2007,07,09,06,41,16.10
2007,07,09,06,42,16.10
2007,07,09,06,43,16.10
2007,07,09,06,44,16.10
2007,07,09,06,45,16.10
2007,07,09,06,46,16.10
2007,07,09,06,47,16.20
2007,07,09,06,48,16.20
2007,07,09,06,49,16.20
2007,07,09,06,50,16.20
2007,07,09,06,51,16.20
2007,07,09,06,52,16.20
2007,07,09,06,53,16.20
2007,07,09,06,54,16.20
2007,07,09,06,55,16.20
2007,07,09,06,56,16.20
2007,07,09,06,57,16.20
2007,07,09,06,58,16.30
2007,07,09,06,59,16.30
2007,07,09,07,00,16.30
2007,07,09,07,01,16.30
2007,07,09,07,02,16.30
2007,07,09,07,03,16.30
2007,07,09,07,04,16.30
2007,07,09,07,05,16.30
2007,07,09,07,06,16.30
2007,07,09,07,07,16.30
2007,07,09,07,08,16.30
2007,07,09,07,09,16.30
2007,07,09,07,10,16.30
2007,07,09,07,11,16.30
2007,07,09,07,12,16.30
2007,07,09,07,13,16.30
2007,07,09,07,14,16.30
2007,07,09,07,15,16.30
2007,07,09,07,16,16.30
2007,07,09,07,17,16.30
2007,07,09,07,18,16.30
2007,07,09,07,19,16.40
2007,07,09,07,20,16.40
2007,07,09,07,21,16.40
2007,07,09,07,22,16.40
2007,07,09,07,23,16.40
2007,07,09,07,24,16.40
2007,07,09,07,25,16.50
2007,07,09,07,26,16.50
2007,07,09,07,27,16.50
2007,07,09,07,28,16.60
2007,07,09,07,29,16.60
2007,07,09,07,30,16.60
2007,07,09,07,31,16.60
2007,07,09,07,32,16.60
2007,07,09,07,33,16.60
2007,07,09,07,34,16.70
2007,07,09,07,35,16.70
2007,07,09,07,36,16.70
2007,07,09,07,37,16.70
2007,07,09,07,38,16.70
2007,07,09,07,39,16.80
2007,07,09,07,40,16.80
2007,07,09,07,41,16.80
2007,07,09,07,42,16.80
2007,07,09,07,43,16.80
2007,07,09,07,44,16.90
2007,07,09,07,45,16.90
2007,07,09,07,46,16.90
2007,07,09,07,47,16.90
2007,07,09,07,48,16.90
2007,07,09,07,49,17.00
2007,07,09,07,50,17.00
2007,07,09,07,51,17.00
2007,07,09,07,52,17.00
2007,07,09,07,53,17.00
2007,07,09,07,54,17.00
2007,07,09,07,55,17.10
2007,07,09,07,56,17.10
2007,07,09,07,57,17.10
2007,07,09,07,58,17.10
2007,07,09,07,59,17.10
2007,07,09,08,00,17.10
2007,07,09,08,01,17.10
2007,07,09,08,02,17.20
2007,07,09,08,03,17.20
2007,07,09,08,04,17.20
2007,07,09,08,05,17.30
2007,07,09,08,06,17.30
2007,07,09,08,07,17.30
2007,07,09,08,08,17.30
2007,07,09,08,09,17.30
2007,07,09,08,10,17.40
2007,07,09,08,11,17.40
2007,07,09,08,12,17.40
2007,07,09,08,13,17.40
2007,07,09,08,14,17.50
2007,07,09,08,15,17.50
2007,07,09,08,16,17.40
2007,07,09,08,17,17.40
2007,07,09,08,18,17.50
2007,07,09,08,19,17.50
2007,07,09,08,20,17.50
2007,07,09,08,21,17.50
2007,07,09,08,22,17.50
2007,07,09,08,23,17.50
2007,07,09,08,24,17.50
2007,07,09,08,25,17.60
2007,07,09,08,26,17.60
2007,07,09,08,27,17.60
2007,07,09,08,28,17.60
2007,07,09,08,29,17.60
2007,07,09,08,30,17.60
2007,07,09,08,31,17.60
2007,07,09,08,32,17.60
2007,07,09,08,33,17.70
2007,07,09,08,34,17.70
2007,07,09,08,35,17.80
2007,07,09,08,36,17.80
2007,07,09,08,37,17.80
2007,07,09,08,38,17.80
2007,07,09,08,39,17.80
2007,07,09,08,40,17.90
2007,07,09,08,41,17.90
2007,07,09,08,42,17.80
2007,07,09,08,43,17.80
2007,07,09,08,44,17.70
2007,07,09,08,45,17.70
2007,07,09,08,46,17.70
2007,07,09,08,47,17.70
2007,07,09,08,48,17.80
2007,07,09,08,49,17.80
2007,07,09,08,50,17.90
2007,07,09,08,51,17.90
2007,07,09,08,52,18.00
2007,07,09,08,53,18.00
2007,07,09,08,54,18.00
2007,07,09,08,55,18.00
2007,07,09,08,56,18.00
2007,07,09,08,57,18.00
2007,07,09,08,58,17.90
2007,07,09,08,59,17.90
2007,07,09,09,00,17.90
2007,07,09,09,01,18.00
2007,07,09,09,02,18.00
2007,07,09,09,03,18.10
2007,07,09,09,04,18.10
2007,07,09,09,05,18.10
2007,07,09,09,06,18.20
2007,07,09,09,07,18.20
2007,07,09,09,08,18.20
2007,07,09,09,09,18.30
2007,07,09,09,10,18.40
2007,07,09,09,11,18.40
2007,07,09,09,12,18.40
2007,07,09,09,13,18.40
2007,07,09,09,14,18.30
2007,07,09,09,15,18.30
2007,07,09,09,16,18.30
2007,07,09,09,17,18.40
2007,07,09,09,18,18.40
2007,07,09,09,19,18.50
2007,07,09,09,20,18.50
2007,07,09,09,21,18.40
2007,07,09,09,22,18.30
2007,07,09,09,23,18.30
2007,07,09,09,24,18.30
2007,07,09,09,25,18.30
2007,07,09,09,26,18.30
2007,07,09,09,27,18.30
2007,07,09,09,28,18.30
2007,07,09,09,29,18.30
2007,07,09,09,30,18.30
2007,07,09,09,31,18.30
2007,07,09,09,32,18.30
2007,07,09,09,33,18.30
2007,07,09,09,34,18.40
2007,07,09,09,35,18.50
2007,07,09,09,36,18.60
2007,07,09,09,37,18.70
2007,07,09,09,38,18.70
2007,07,09,09,39,18.80
2007,07,09,09,40,18.80
2007,07,09,09,41,18.80
2007,07,09,09,42,18.80
2007,07,09,09,43,18.80
2007,07,09,09,44,18.80
2007,07,09,09,45,18.80
2007,07,09,09,46,18.90
2007,07,09,09,47,18.90
2007,07,09,09,48,18.80
2007,07,09,09,49,18.80
2007,07,09,09,50,18.90
2007,07,09,09,51,18.90
2007,07,09,09,52,18.90
2007,07,09,09,53,18.90
2007,07,09,09,54,19.00
2007,07,09,09,55,19.10
2007,07,09,09,56,19.10
2007,07,09,09,57,19.00
2007,07,09,09,58,19.10
2007,07,09,09,59,19.10
2007,07,09,10,00,19.10
2007,07,09,10,01,19.10
2007,07,09,10,02,19.20
2007,07,09,10,03,19.20
2007,07,09,10,04,19.20
2007,07,09,10,05,19.20
2007,07,09,10,06,19.20
2007,07,09,10,07,19.20
2007,07,09,10,08,19.30
2007,07,09,10,09,19.30
2007,07,09,10,10,19.30
2007,07,09,10,11,19.30
2007,07,09,10,12,19.30
2007,07,09,10,13,19.30
2007,07,09,10,14,19.30
2007,07,09,10,15,19.40
2007,07,09,10,16,19.40
2007,07,09,10,17,19.40
2007,07,09,10,18,19.40
2007,07,09,10,19,19.40
2007,07,09,10,20,19.40
2007,07,09,10,21,19.40
2007,07,09,10,22,19.50
2007,07,09,10,23,19.50
2007,07,09,10,24,19.60
2007,07,09,10,25,19.50
2007,07,09,10,26,19.40
2007,07,09,10,27,19.40
2007,07,09,10,28,19.30
2007,07,09,10,29,19.20
2007,07,09,10,30,19.10
2007,07,09,10,31,19.00
2007,07,09,10,32,18.90
2007,07,09,10,33,18.80
2007,07,09,10,34,18.80
2007,07,09,10,35,18.80
2007,07,09,10,36,18.90
2007,07,09,10,37,19.00
2007,07,09,10,38,19.00
2007,07,09,10,39,19.10
2007,07,09,10,40,19.10
2007,07,09,10,41,19.10
2007,07,09,10,42,19.20
2007,07,09,10,43,19.30
2007,07,09,10,44,19.40
2007,07,09,10,45,19.50
2007,07,09,10,46,19.50
2007,07,09,10,47,19.60
2007,07,09,10,48,19.60
2007,07,09,10,49,19.60
2007,07,09,10,50,19.60
2007,07,09,10,51,19.70
2007,07,09,10,52,19.70
2007,07,09,10,53,19.70
2007,07,09,10,54,19.70
2007,07,09,10,55,19.70
2007,07,09,10,56,19.70
2007,07,09,10,57,19.60
2007,07,09,10,58,19.70
2007,07,09,10,59,19.70
2007,07,09,11,00,19.60
2007,07,09,11,01,19.60
2007,07,09,11,02,19.60
2007,07,09,11,03,19.70
2007,07,09,11,04,19.60
2007,07,09,11,05,19.50
2007,07,09,11,06,19.50
2007,07,09,11,07,19.60
2007,07,09,11,08,19.70
2007,07,09,11,09,19.70
2007,07,09,11,10,19.70
2007,07,09,11,11,19.70
2007,07,09,11,12,19.70
2007,07,09,11,13,19.70
2007,07,09,11,14,19.80
2007,07,09,11,15,19.80
2007,07,09,11,16,19.90
2007,07,09,11,17,20.00
2007,07,09,11,18,19.90
2007,07,09,11,19,19.90
2007,07,09,11,20,20.00
2007,07,09,11,21,20.10
2007,07,09,11,22,20.20
2007,07,09,11,23,20.20
2007,07,09,11,24,20.20
2007,07,09,11,25,20.20
2007,07,09,11,26,20.20
2007,07,09,11,27,20.20
2007,07,09,11,28,20.30
2007,07,09,11,29,20.40
2007,07,09,11,30,20.50
2007,07,09,11,31,20.50
2007,07,09,11,32,20.40
2007,07,09,11,33,20.40
2007,07,09,11,34,20.40
2007,07,09,11,35,20.50
2007,07,09,11,36,20.50
2007,07,09,11,37,20.50
2007,07,09,11,38,20.50
2007,07,09,11,39,20.40
2007,07,09,11,40,20.40
2007,07,09,11,41,20.40
2007,07,09,11,42,20.30
2007,07,09,11,43,20.30
2007,07,09,11,44,20.40
2007,07,09,11,45,20.50
2007,07,09,11,46,20.50
2007,07,09,11,47,20.50
2007,07,09,11,48,20.60
2007,07,09,11,49,20.70
2007,07,09,11,50,20.80
2007,07,09,11,51,20.90
2007,07,09,11,52,20.90
2007,07,09,11,53,21.00
2007,07,09,11,54,21.00
2007,07,09,11,55,21.10
2007,07,09,11,56,21.10
2007,07,09,11,57,21.10
2007,07,09,11,58,21.10
2007,07,09,11,59,21.00
2007,07,09,12,00,21.10
2007,07,09,12,01,21.10
2007,07,09,12,02,21.00
2007,07,09,12,03,21.00
2007,07,09,12,04,21.10
2007,07,09,12,05,21.00
2007,07,09,12,06,21.00
2007,07,09,12,07,21.10
2007,07,09,12,08,21.20
2007,07,09,12,09,21.30
2007,07,09,12,10,21.30
2007,07,09,12,11,21.30
2007,07,09,12,12,21.40
2007,07,09,12,13,21.40
2007,07,09,12,14,21.40
2007,07,09,12,15,21.40
2007,07,09,12,16,21.40
2007,07,09,12,17,21.30
2007,07,09,12,18,21.20
2007,07,09,12,19,21.20
2007,07,09,12,20,21.10
2007,07,09,12,21,21.10
2007,07,09,12,22,21.10
2007,07,09,12,23,21.10
2007,07,09,12,24,21.10
2007,07,09,12,25,21.10
2007,07,09,12,26,21.10
2007,07,09,12,27,21.00
2007,07,09,12,28,21.00
2007,07,09,12,29,21.00
2007,07,09,12,30,21.10
2007,07,09,12,31,21.10
2007,07,09,12,32,21.10
2007,07,09,12,33,21.10
2007,07,09,12,34,21.10
2007,07,09,12,35,20.90
2007,07,09,12,36,20.80
2007,07,09,12,37,20.80
2007,07,09,12,38,20.80
2007,07,09,12,39,20.80
2007,07,09,12,40,20.90
2007,07,09,12,41,20.90
2007,07,09,12,42,20.90
2007,07,09,12,43,20.80
2007,07,09,12,44,20.80
2007,07,09,12,45,20.90
2007,07,09,12,46,20.90
2007,07,09,12,47,21.00
2007,07,09,12,48,21.10
2007,07,09,12,49,21.10
2007,07,09,12,50,21.10
2007,07,09,12,51,21.20
2007,07,09,12,52,21.30
2007,07,09,12,53,21.30
2007,07,09,12,54,21.30
2007,07,09,12,55,21.20
2007,07,09,12,56,21.20
2007,07,09,12,57,21.20
2007,07,09,12,58,21.10
2007,07,09,12,59,21.10
2007,07,09,13,00,21.10
2007,07,09,13,01,21.20
2007,07,09,13,02,21.30
2007,07,09,13,03,21.40
2007,07,09,13,04,21.50
2007,07,09,13,05,21.60
2007,07,09,13,06,21.70
2007,07,09,13,07,21.60
2007,07,09,13,08,21.70
2007,07,09,13,09,21.70
2007,07,09,13,10,21.70
2007,07,09,13,11,21.70
2007,07,09,13,12,21.70
2007,07,09,13,13,21.70
2007,07,09,13,14,21.60
2007,07,09,13,15,21.60
2007,07,09,13,16,21.50
2007,07,09,13,17,21.60
2007,07,09,13,18,21.70
2007,07,09,13,19,21.70
2007,07,09,13,20,21.80
2007,07,09,13,21,21.80
2007,07,09,13,22,21.80
2007,07,09,13,23,21.80
2007,07,09,13,24,21.80
2007,07,09,13,25,21.90
2007,07,09,13,26,21.90
2007,07,09,13,27,21.90
2007,07,09,13,28,21.80
2007,07,09,13,29,21.80
2007,07,09,13,30,21.80
2007,07,09,13,31,21.80
2007,07,09,13,32,21.90
2007,07,09,13,33,21.80
2007,07,09,13,34,21.80
2007,07,09,13,35,21.80
2007,07,09,13,36,21.80
2007,07,09,13,37,21.80
2007,07,09,13,38,21.80
2007,07,09,13,39,21.80
2007,07,09,13,40,21.80
2007,07,09,13,41,21.80
2007,07,09,13,42,21.80
2007,07,09,13,43,21.80
2007,07,09,13,44,21.80
2007,07,09,13,45,21.70
2007,07,09,13,46,21.80
2007,07,09,13,47,21.80
2007,07,09,13,48,21.80
2007,07,09,13,49,21.90
2007,07,09,13,50,21.90
2007,07,09,13,51,21.80
2007,07,09,13,52,21.80
2007,07,09,13,53,21.80
2007,07,09,13,54,21.80
2007,07,09,13,55,21.80
2007,07,09,13,56,21.90
2007,07,09,13,57,21.90
2007,07,09,13,58,22.00
2007,07,09,13,59,22.00
2007,07,09,14,00,22.00
2007,07,09,14,01,22.00
2007,07,09,14,02,22.10
2007,07,09,14,03,22.10
2007,07,09,14,04,22.10
2007,07,09,14,05,22.20
2007,07,09,14,06,22.20
2007,07,09,14,07,22.20
2007,07,09,14,08,22.10
2007,07,09,14,09,21.90
2007,07,09,14,10,21.80
2007,07,09,14,11,21.80
2007,07,09,14,12,21.80
2007,07,09,14,13,21.80
2007,07,09,14,14,21.80
2007,07,09,14,15,21.90
2007,07,09,14,16,22.00
2007,07,09,14,17,22.10
2007,07,09,14,18,22.20
2007,07,09,14,19,22.30
2007,07,09,14,20,22.30
2007,07,09,14,21,22.30
2007,07,09,14,22,22.30
2007,07,09,14,23,22.30
2007,07,09,14,24,22.30
2007,07,09,14,25,22.20
2007,07,09,14,26,22.10
2007,07,09,14,27,22.00
2007,07,09,14,28,22.10
2007,07,09,14,29,22.20
2007,07,09,14,30,22.30
2007,07,09,14,31,22.40
2007,07,09,14,32,22.40
2007,07,09,14,33,22.50
2007,07,09,14,34,22.50
2007,07,09,14,35,22.50
2007,07,09,14,36,22.40
2007,07,09,14,37,22.30
2007,07,09,14,38,22.30
2007,07,09,14,39,22.30
2007,07,09,14,40,22.30
2007,07,09,14,41,22.30
2007,07,09,14,42,22.30
2007,07,09,14,43,22.30
2007,07,09,14,44,22.40
2007,07,09,14,45,22.50
2007,07,09,14,46,22.60
2007,07,09,14,47,22.60
2007,07,09,14,48,22.70
2007,07,09,14,49,22.70
2007,07,09,14,50,22.70
2007,07,09,14,51,22.70
2007,07,09,14,52,22.80
2007,07,09,14,53,22.90
2007,07,09,14,54,22.90
2007,07,09,14,55,23.00
2007,07,09,14,56,23.00
2007,07,09,14,57,23.00
2007,07,09,14,58,23.00
2007,07,09,14,59,22.90
2007,07,09,15,00,22.90
2007,07,09,15,01,23.00
2007,07,09,15,02,23.10
2007,07,09,15,03,23.20
2007,07,09,15,04,23.30
2007,07,09,15,05,23.30
2007,07,09,15,06,23.30
2007,07,09,15,07,23.30
2007,07,09,15,08,23.30
2007,07,09,15,09,23.30
2007,07,09,15,10,23.20
2007,07,09,15,11,23.20
2007,07,09,15,12,23.30
2007,07,09,15,13,23.30
2007,07,09,15,14,23.20
2007,07,09,15,15,23.20
2007,07,09,15,16,23.20
2007,07,09,15,17,23.20
2007,07,09,15,18,23.20
2007,07,09,15,19,23.20
2007,07,09,15,20,23.20
2007,07,09,15,21,23.20
2007,07,09,15,22,23.20
2007,07,09,15,23,23.10
2007,07,09,15,24,23.10
2007,07,09,15,25,23.10
2007,07,09,15,26,23.10
2007,07,09,15,27,23.10
2007,07,09,15,28,23.20
2007,07,09,15,29,23.20
2007,07,09,15,30,23.30
2007,07,09,15,31,23.30
2007,07,09,15,32,23.30
2007,07,09,15,33,23.30
2007,07,09,15,34,23.30
2007,07,09,15,35,23.30
2007,07,09,15,36,23.40
2007,07,09,15,37,23.40
2007,07,09,15,38,23.40
2007,07,09,15,39,23.40
2007,07,09,15,40,23.40
2007,07,09,15,41,23.30
2007,07,09,15,42,23.30
2007,07,09,15,43,23.30
2007,07,09,15,44,23.40
2007,07,09,15,45,23.50
2007,07,09,15,46,23.60
2007,07,09,15,47,23.60
2007,07,09,15,48,23.50
2007,07,09,15,49,23.50
2007,07,09,15,50,23.60
2007,07,09,15,51,23.60
2007,07,09,15,52,23.60
2007,07,09,15,53,23.70
2007,07,09,15,54,23.70
2007,07,09,15,55,23.80
2007,07,09,15,56,23.90
2007,07,09,15,57,24.00
2007,07,09,15,58,24.10
2007,07,09,15,59,24.10
2007,07,09,16,00,24.20
2007,07,09,16,01,24.20
2007,07,09,16,02,24.20
2007,07,09,16,03,24.20
2007,07,09,16,04,24.30
2007,07,09,16,05,24.20
2007,07,09,16,06,24.20
2007,07,09,16,07,24.20
2007,07,09,16,08,24.20
2007,07,09,16,09,24.20
2007,07,09,16,10,24.10
2007,07,09,16,11,24.10
2007,07,09,16,12,24.20
2007,07,09,16,13,24.30
2007,07,09,16,14,24.30
2007,07,09,16,15,24.40
2007,07,09,16,16,24.40
2007,07,09,16,17,24.40
2007,07,09,16,18,24.50
2007,07,09,16,19,24.60
2007,07,09,16,20,24.60
2007,07,09,16,21,24.70
2007,07,09,16,22,24.70
2007,07,09,16,23,24.70
2007,07,09,16,24,24.60
2007,07,09,16,25,24.60
2007,07,09,16,26,24.60
2007,07,09,16,27,24.60
2007,07,09,16,28,24.60
2007,07,09,16,29,24.60
2007,07,09,16,30,24.60
2007,07,09,16,31,24.60
2007,07,09,16,32,24.60
2007,07,09,16,33,24.60
2007,07,09,16,34,24.70
2007,07,09,16,35,24.70
2007,07,09,16,36,24.60
2007,07,09,16,37,24.60
2007,07,09,16,38,24.60
2007,07,09,16,39,24.60
2007,07,09,16,40,24.60
2007,07,09,16,41,24.60
2007,07,09,16,42,24.70
2007,07,09,16,43,24.70
2007,07,09,16,44,24.80
2007,07,09,16,45,24.80
2007,07,09,16,46,24.80
2007,07,09,16,47,24.80
2007,07,09,16,48,24.90
2007,07,09,16,49,24.90
2007,07,09,16,50,24.90
2007,07,09,16,51,24.90
2007,07,09,16,52,24.90
2007,07,09,16,53,24.90
2007,07,09,16,54,24.90
2007,07,09,16,55,25.00
2007,07,09,16,56,25.10
2007,07,09,16,57,25.10
2007,07,09,16,58,25.10
2007,07,09,16,59,25.20
2007,07,09,17,00,25.20
2007,07,09,17,01,25.30
2007,07,09,17,02,25.30
2007,07,09,17,03,25.30
2007,07,09,17,04,25.30
2007,07,09,17,05,25.30
2007,07,09,17,06,25.30
2007,07,09,17,07,25.20
2007,07,09,17,08,25.30
2007,07,09,17,09,25.30
2007,07,09,17,10,25.30
2007,07,09,17,11,25.30
2007,07,09,17,12,25.30
2007,07,09,17,13,25.30
2007,07,09,17,14,25.30
2007,07,09,17,15,25.30
2007,07,09,17,16,25.30
2007,07,09,17,17,25.40
2007,07,09,17,18,25.40
2007,07,09,17,19,25.40